EW6262 Weather Reports


time (UTC)temp
C
wind
direction
speed
KPH
gust
KPH
rain 1hr
cm
rain 24hr
cm
rain mn
cm
humidity
%
barometer
mb
20260508203028 9 11 0.0 0.0 0.00 0.36 0.00 79 1002.2
20260508201528 8 14 0.0 0.0 0.00 0.36 0.00 81 1002.1
20260508200032 8 13 0.0 3.2 0.00 0.94 0.00 80 1002.0
20260508194545 8 13 0.0 0.0 0.00 0.94 0.00 78 1002.0
20260508193026 8 9 0.0 0.0 0.00 0.94 0.00 79 1001.8
20260508191525 9 9 0.0 0.0 0.00 0.94 0.00 79 1001.8
20260508190025 10 9 0.0 0.0 0.00 1.50 0.00 78 1001.9
20260508184531 9 5 0.0 0.0 0.00 1.50 0.00 80 1002.0
20260508183024 9 5 0.0 0.0 0.00 1.50 0.00 80 1001.9
20260508181530 8 5 0.0 1.6 0.00 1.50 0.00 82 1001.8
20260508180025 8 5 0.0 1.6 0.00 1.50 0.00 82 1002.0
20260508174522 9 9 0.0 0.0 0.00 1.50 0.00 83 1002.2
20260508173034 8 5 0.0 0.0 0.00 1.50 0.00 83 1002.3
20260508171526 9 9 0.0 0.0 0.00 1.50 0.00 81 1002.1
20260508170021 10 9 0.0 0.0 0.00 1.50 0.00 80 1002.3
20260508164522 10 9 0.0 0.0 0.00 1.50 0.00 79 1002.2
20260508163021 10 9 0.0 1.6 0.00 1.50 0.00 80 1002.0
20260508161524 10 9 0.0 0.0 0.00 1.50 0.00 83 1001.9
20260508160026 10 9 0.0 0.0 0.00 1.50 0.00 83 1002.1
20260508154516 10 9 0.0 0.0 0.00 1.50 0.00 85 1001.9
20260508153013 10 9 0.0 0.0 0.00 1.50 0.00 86 1002.3
20260508151511 9 9 0.0 0.0 0.00 1.50 0.00 87 1002.5
20260508150009 8 5 0.0 1.6 0.00 1.50 0.00 87 1002.2
20260508144507 8 9 0.0 0.0 0.00 1.50 0.00 88 1002.5
20260508143018 8 9 0.0 0.0 0.00 1.50 0.00 89 1002.6
20260508141506 8 9 0.0 1.6 0.00 1.50 0.00 90 1002.8
20260508140004 8 9 0.0 0.0 0.00 1.50 0.00 91 1002.9
20260508134503 8 9 0.0 0.0 0.00 1.50 0.00 92 1002.8
20260508133002 8 9 0.0 0.0 0.00 1.50 0.00 92 1002.6
20260508131600 8 9 0.0 0.0 0.00 1.50 0.00 92 1002.6
20260508130100 7 9 0.0 0.0 0.00 1.50 0.00 93 1002.6
20260508124559 7 9 0.0 0.0 0.00 1.50 0.00 93 1002.5
20260508123107 7 11 0.0 0.0 0.00 1.50 0.00 94 1002.5
20260508121559 7 11 0.0 0.0 0.00 1.50 0.00 95 1002.7
20260508120058 6 11 0.0 0.0 0.00 1.52 0.00 95 1002.7
20260508114558 6 11 0.0 0.0 0.00 1.52 0.00 95 1002.6
20260508113059 6 11 0.0 0.0 0.00 1.52 0.00 95 1002.8
20260508111603 6 11 0.0 0.0 0.00 1.52 0.00 95 1003.0
20260508104555 7 11 0.0 0.0 0.00 1.52 0.00 95 1003.0
20260508103054 6 12 0.0 0.0 0.00 1.52 0.00 96 1003.1
20260508101552 6 12 0.0 0.0 0.00 1.52 0.00 95 1002.7
20260508100051 5 12 0.0 0.0 0.00 1.52 0.00 95 1002.5
20260508094602 5 12 0.0 0.0 0.00 1.52 0.00 95 1002.2
20260508093051 5 12 0.0 0.0 0.00 1.52 0.00 95 1002.5
20260508091547 5 12 0.0 0.0 0.00 1.52 0.00 95 1002.4
20260508090046 4 12 0.0 0.0 0.00 1.52 0.00 95 1002.1
20260508084544 5 12 0.0 0.0 0.00 1.52 0.00 95 1001.6
20260508083044 5 12 0.0 0.0 0.00 1.52 0.00 95 1001.8
20260508081550 5 14 0.0 0.0 0.00 1.52 0.00 94 1001.4
20260508080040 5 14 0.0 0.0 0.00 1.52 0.00 94 1001.5
20260508074538 5 14 0.0 0.0 0.00 1.52 0.00 94 1001.8
20260508073037 5 14 0.0 0.0 0.00 1.52 0.00 94 1001.9
20260508071533 5 15 0.0 0.0 0.00 1.52 0.00 94 1002.0
20260508070032 6 14 0.0 0.0 0.00 1.52 0.00 95 1001.9
20260508064532 6 16 0.0 0.0 0.00 1.52 0.00 95 1001.9
20260508063030 6 16 0.0 0.0 0.00 1.52 0.00 95 1001.9
20260508061530 5 15 0.0 0.0 0.00 1.52 0.00 95 1001.9
20260508060030 5 15 0.0 0.0 0.00 1.52 0.00 95 1002.0
20260508054531 6 15 0.0 0.0 0.00 1.52 0.00 95 1002.0
20260508053031 5 5 0.0 0.0 0.00 1.52 0.00 94 1002.1
20260508051531 5 12 0.0 0.0 0.00 1.52 0.00 94 1001.9
20260508050024 6 13 0.0 4.8 0.00 1.52 0.00 94 1002.0
20260508044522 6 16 0.0 0.0 0.00 1.52 0.00 94 1002.0
20260508043020 6 16 0.0 0.0 0.00 1.52 0.00 94 1002.0
20260508041517 7 16 0.0 0.0 0.00 1.52 0.00 94 1001.8
20260508040015 7 9 0.0 0.0 0.00 1.52 0.00 93 1002.0
20260508034513 8 16 0.0 0.0 0.00 1.52 0.00 94 1002.0
20260508033010 8 16 0.0 0.0 0.00 1.52 0.00 93 1002.0
20260508031506 8 16 0.0 0.0 0.00 1.52 0.00 94 1002.0
20260508030007 8 16 0.0 0.0 0.00 1.52 1.52 94 1002.0
20260508024504 9 15 0.0 0.0 0.00 1.52 1.52 94 1002.3
20260508023009 9 16 0.0 4.8 0.00 1.52 1.52 95 1001.8
20260508021504 8 16 0.0 0.0 0.00 1.52 1.52 95 1002.0
20260508020002 8 5 0.0 0.0 0.00 1.52 1.52 95 1001.9
20260508014502 8 11 0.0 0.0 0.00 1.52 1.52 95 1002.0
20260508013100 7 11 0.0 0.0 0.00 1.52 1.52 95 1001.6
20260508011607 7 11 0.0 0.0 0.00 1.52 1.52 94 1001.7
20260508010057 7 12 0.0 0.0 0.00 1.52 1.52 94 1001.9
20260508004558 8 12 0.0 0.0 0.00 1.52 1.52 94 1001.9
20260508003056 7 12 0.0 0.0 0.00 1.52 1.52 94 1002.2
20260508001551 8 15 0.0 1.6 0.00 1.52 1.52 93 1002.0
20260508000048 10 16 0.0 0.0 0.00 1.52 1.52 94 1001.7
20260507234557 10 13 0.0 0.0 0.00 1.52 1.52 94 1001.2
20260507233045 11 12 0.0 0.0 0.00 1.52 1.52 94 1001.2
20260507231549 11 12 0.0 0.0 0.00 1.52 1.52 94 1001.4
20260507230046 11 12 0.0 0.0 0.00 1.52 1.52 94 1001.2
20260507224544 11 13 0.0 0.0 0.00 1.52 1.52 94 1001.1
20260507223043 11 13 0.0 0.0 0.00 1.52 1.52 94 1001.0
20260507221545 11 12 0.0 4.8 0.03 1.52 1.52 94 1001.2
20260507220041 11 12 0.0 3.2 0.03 1.52 1.52 94 1001.1
20260507214540 11 11 0.0 16.1 0.03 1.52 1.52 94 1000.5
20260507213040 11 11 4.8 25.7 0.08 1.52 1.52 94 1001.1
20260507211539 11 11 0.0 6.4 0.18 1.50 1.50 94 1001.1
20260507210038 11 13 1.6 22.5 0.33 1.50 1.50 94 1001.1
20260507204536 11 10 3.2 20.9 0.46 1.50 1.50 94 1000.5